Quick links : Home Page : Contact Us : Index : Site Map : Search Site : Ephemerides


C/2006 L2 (McNaught)

Orbital Elements

The following orbital elements are taken from MPC 60664:
C/2006 L2 (McNaught)
Epoch 2006 Nov. 1.0 TT = JDT 2454040.5
T 2006 Nov. 20.1998 TT                                  MPC
q   1.993949             (2000.0)            P               Q
z  -0.000474       Peri.   48.0348      -0.4640991      +0.2703503
 +/-0.000002       Node   239.2460      -0.7508411      +0.3851596
e   1.000945       Incl.  101.0223      +0.4699465      +0.8823621
From 380 observations 2006 June 14-2007 July 7, mean residual 0".7.
Elements are also available for the current standard epoch:
C/2006 L2 (McNaught)
Epoch 2008 May 14.0 TT = JDT 2454600.5
T 2006 Nov. 20.2766 TT                                  MPC
q   1.994362             (2000.0)            P               Q
z  -0.000598       Peri.   48.0605      -0.4638301      +0.2705700
 +/-0.000002       Node   239.2520      -0.7507734      +0.3854678
e   1.001192       Incl.  101.0136      +0.4703200      +0.8821601
An explanation of the orbital elements is available.

These orbital elements are also available in forms suitable for loading into a number of popular planetarium-type software programs.


Ephemeris

The following ephemeris is at intervals of five days. A daily ephemeris covering the same time interval is also available.

Personalized ephemerides for this (and other) objects may be generated using the Minor Planet & Comet Ephemeris Service.

Recent magnitude estimates for this comet (as reported to the ICQ) may be available.

Date    TT    R. A. (2000) Decl.     Delta      r     Elong.  Phase   m1    m2

WARNING!

This comet gets close to the sun during the period covered in the ephemeris below. Observers are warned to be wary of observing comets near the sun. NEVER point any kind of optical instrument at the sun--instant blindness will be the probable result.

2008 04 14 03 19.11 +40 12.5 6.443 5.700 39.2 6.4 20.6 2008 04 19 03 22.81 +40 00.4 6.529 5.741 35.6 5.8 20.7 2008 04 24 03 26.53 +39 49.7 6.609 5.782 32.1 5.3 20.7 2008 04 29 03 30.25 +39 40.5 6.685 5.823 28.8 4.8 20.8 2008 05 04 03 33.96 +39 32.5 6.755 5.864 25.8 4.3 20.8 2008 05 09 03 37.65 +39 25.6 6.819 5.905 23.2 3.9 20.9 2008 05 14 03 41.31 +39 19.7 6.878 5.946 21.0 3.5 20.9 2008 05 19 03 44.92 +39 14.8 6.931 5.986 19.5 3.2 21.0 2008 05 24 03 48.46 +39 10.7 6.977 6.027 18.7 3.1 21.0 2008 05 29 03 51.95 +39 07.4 7.018 6.067 18.8 3.1 21.1 2008 06 03 03 55.35 +39 04.7 7.053 6.108 19.8 3.2 21.1 2008 06 08 03 58.65 +39 02.7 7.081 6.148 21.6 3.5 21.1 2008 06 13 04 01.85 +39 01.3 7.104 6.189 23.9 3.8 21.2 2008 06 18 04 04.94 +39 00.3 7.120 6.229 26.7 4.2 21.2 2008 06 23 04 07.89 +38 59.8 7.131 6.269 29.8 4.6 21.2 2008 06 28 04 10.70 +38 59.7 7.136 6.309 33.1 5.1 21.3 2008 07 03 04 13.36 +38 59.9 7.135 6.349 36.7 5.5 21.3 2008 07 08 04 15.85 +39 00.4 7.129 6.389 40.4 5.9 21.3 2008 07 13 04 18.16 +39 01.1 7.118 6.429 44.2 6.3 21.3 2008 07 18 04 20.27 +39 02.1 7.102 6.469 48.2 6.7 21.4 2008 07 23 04 22.18 +39 03.2 7.082 6.509 52.2 7.1 21.4 2008 07 28 04 23.87 +39 04.4 7.057 6.549 56.3 7.4 21.4 2008 08 02 04 25.32 +39 05.6 7.028 6.588 60.5 7.7 21.4 2008 08 07 04 26.51 +39 06.8 6.996 6.628 64.8 8.0 21.4 2008 08 12 04 27.45 +39 08.0 6.960 6.667 69.2 8.2 21.5 2008 08 17 04 28.11 +39 08.9 6.922 6.707 73.6 8.3 21.5 2008 08 22 04 28.48 +39 09.6 6.882 6.746 78.1 8.4 21.5 2008 08 27 04 28.56 +39 10.0 6.840 6.786 82.7 8.5 21.5 2008 09 01 04 28.32 +39 09.9 6.796 6.825 87.4 8.5 21.5 2008 09 06 04 27.77 +39 09.3 6.753 6.864 92.1 8.4 21.5 2008 09 11 04 26.90 +39 08.0 6.709 6.903 96.9 8.3 21.5 2008 09 16 04 25.71 +39 05.9 6.667 6.942 101.8 8.2 21.5 2008 09 21 04 24.19 +39 02.9 6.626 6.981 106.7 7.9 21.5 2008 09 26 04 22.36 +38 58.8 6.587 7.020 111.7 7.6 21.6 2008 10 01 04 20.21 +38 53.5 6.551 7.059 116.8 7.3 21.6 2008 10 06 04 17.77 +38 46.8 6.518 7.098 121.9 6.9 21.6 2008 10 11 04 15.05 +38 38.6 6.490 7.137 127.1 6.4 21.6 2008 10 16 04 12.07 +38 28.8 6.467 7.175 132.2 5.9 21.6 2008 10 21 04 08.87 +38 17.3 6.449 7.214 137.4 5.4 21.6 2008 10 26 04 05.48 +38 04.1 6.438 7.252 142.5 4.8 21.6 2008 10 31 04 01.94 +37 49.1 6.434 7.291 147.5 4.2 21.7 2008 11 05 03 58.27 +37 32.2 6.437 7.329 152.3 3.6 21.7 2008 11 10 03 54.55 +37 13.6 6.447 7.368 156.8 3.0 21.7 2008 11 15 03 50.79 +36 53.3 6.466 7.406 160.5 2.6 21.7 2008 11 20 03 47.06 +36 31.5 6.493 7.444 163.1 2.2 21.8 2008 11 25 03 43.39 +36 08.4 6.529 7.482 164.0 2.1 21.8 2008 11 30 03 39.83 +35 44.0 6.573 7.520 162.8 2.2 21.9 2008 12 05 03 36.42 +35 18.7 6.625 7.558 159.9 2.6 21.9 2008 12 10 03 33.19 +34 52.8 6.686 7.596 156.0 3.0 21.9 2008 12 15 03 30.17 +34 26.4 6.755 7.634 151.5 3.5 22.0 2008 12 20 03 27.39 +33 59.9 6.832 7.672 146.6 4.0 22.0 2008 12 25 03 24.87 +33 33.4 6.916 7.710 141.5 4.6 22.1 2008 12 30 03 22.62 +33 07.3 7.006 7.748 136.4 5.0 22.1 2009 01 04 03 20.65 +32 41.7 7.103 7.785 131.1 5.5 22.2 2009 01 09 03 18.97 +32 16.8 7.206 7.823 125.9 5.8 22.2 2009 01 14 03 17.58 +31 52.9 7.313 7.861 120.7 6.2 22.3 2009 01 19 03 16.48 +31 30.0 7.425 7.898 115.5 6.5 22.3 2009 01 24 03 15.66 +31 08.3 7.540 7.936 110.3 6.7 22.4 2009 01 29 03 15.11 +30 47.9 7.659 7.973 105.1 6.8 22.4 2009 02 03 03 14.84 +30 28.7 7.779 8.010 100.1 7.0 22.5 2009 02 08 03 14.81 +30 10.9 7.901 8.048 95.0 7.0 22.5 2009 02 13 03 15.03 +29 54.5 8.023 8.085 90.0 7.0 22.6 2009 02 18 03 15.48 +29 39.3 8.146 8.122 85.1 7.0 22.7 2009 02 23 03 16.14 +29 25.6 8.268 8.159 80.2 6.9 22.7 2009 02 28 03 17.00 +29 13.1 8.389 8.196 75.4 6.7 22.8 2009 03 05 03 18.05 +29 01.8 8.508 8.233 70.7 6.5 22.8 2009 03 10 03 19.26 +28 51.7 8.625 8.270 65.9 6.3 22.9 2009 03 15 03 20.64 +28 42.8 8.739 8.307 61.3 6.0 22.9 2009 03 20 03 22.15 +28 34.9 8.849 8.344 56.7 5.7 22.9 2009 03 25 03 23.80 +28 28.0 8.956 8.381 52.1 5.4 23.0 2009 03 30 03 25.56 +28 22.0 9.058 8.417 47.6 5.0 23.0 2009 04 04 03 27.42 +28 16.9 9.156 8.454 43.1 4.6 23.1 2009 04 09 03 29.37 +28 12.6 9.249 8.490 38.7 4.2 23.1 2009 04 14 03 31.39 +28 09.0 9.336 8.527 34.4 3.8 23.2 2009 04 19 03 33.48 +28 06.0 9.418 8.564 30.1 3.4 23.2 2009 04 24 03 35.62 +28 03.6 9.494 8.600 25.8 2.9 23.2 2009 04 29 03 37.80 +28 01.7 9.564 8.636 21.7 2.5 23.3 2009 05 04 03 40.01 +28 00.2 9.628 8.673 17.7 2.0 23.3 2009 05 09 03 42.23 +27 59.2 9.686 8.709 13.9 1.6 23.3 2009 05 14 03 44.46 +27 58.4 9.737 8.745 10.6 1.2 23.4 2009 05 19 03 46.68 +27 58.0 9.781 8.781 8.3 1.0 23.4

Back to Observable Comets

MPC CBAT ICQ

Valid HTML 4.01!